Location: Ayala
(10.5044°N, 66.7633°W)
Time: 18:25:04
(UTC+00:00)

Daily predictions for brighter satellites

Satellite Brightness Start Highest point End
(mag) Time Altitude Azimuth Time Altitude Azimuth Time Altitude Azimuth
USA 267 3.8 23:06:46 10° ENE 23:12:37 35° SE 23:18:27 10° S
BREEZE-M DEB (TANK) 4.4 23:08:34 10° NW 23:12:41 71° SW 23:24:28 10° SSE
Cosmos 2278 Rocket 2.8 23:07:57 10° N 23:13:08 37° ENE 23:18:18 10° SE
GPS 2-14 Rocket1 3.5 23:10:00 10° W 23:13:59 52° NNW 23:17:57 10° ENE
Meteor 2-10 4.1 23:12:37 10° N 23:17:43 60° E 23:22:59 10° SSE
Cosmos 1707 3.2 23:15:57 10° SSE 23:19:30 38° E 23:23:03 10° NNE
Cosmos 1842 3.7 23:19:36 10° SSW 23:23:24 65° W 23:27:11 10° N
SL-16 R/B 3.7 23:19:57 10° SW 23:25:15 42° WNW 23:30:34 10° N
Cosmos 1766 3.5 23:22:25 10° N 23:26:11 46° E 23:29:55 10° SSE
USA 229 DEB 4.3 23:20:49 10° NNW 23:28:39 74° WSW 23:36:36 10° SSE
USA 229 4.3 23:20:54 10° NNW 23:28:44 75° WSW 23:36:41 10° SSE
GPS 2-17 Rocket1 2.9 23:28:06 10° WSW 23:32:32 78° SSE 23:37:06 10° ENE
Ariane H10 4.0 23:31:38 10° WSW 23:34:42 23° SSW 23:36:19 13° SE
Cosmos 405 Rocket 3.3 23:32:05 10° SSE 23:35:42 37° E 23:39:22 10° NNE
Centaur D-1A AC-35 4.1 23:34:01 10° W 23:38:53 23° SW 23:41:49 10° SSE
CZ-4C R/B 3.3 23:40:09 10° N 23:43:27 67° WNW 23:46:51 10° SSW
YAOGAN 1 2.5 23:39:16 10° SSE 23:43:35 89° ENE 23:47:54 10° N
X-37B 1.8 23:41:29 10° WSW 23:44:05 38° NW 23:46:42 10° NNE
Cosmos 1943 3.2 23:43:20 10° S 23:48:54 59° ESE 23:54:27 10° NNE
Feng Yun 1-1 Rocket 4.1 23:45:19 10° SSE 23:50:39 69° ENE 23:56:02 10° N
Cosmos 2266 Rocket 4.0 23:44:58 10° N 23:50:54 59° E 23:56:54 10° SSE
Cosmos 1603 3.8 23:47:34 10° S 23:53:02 54° ESE 23:58:32 10° NNE
